Regional Weather Roundup
Issued by NWS

Home | Current Version | Previous Version | Text Only | Print | Product List | Glossary Off
Versions: 1 2 3 4 5 6 7 8 9 10 11 12 13 14 15 16 17 18 19 20 21 22 23 24 25 26 27 28 29 30 31 32 33 34 35 36 37 38 39 40 41 42 43 44 45 46 47 48 49 50

000
ASUS43 KTOP 281259
RWRKS

WEATHER ROUNDUP FOR KANSAS
NATIONAL WEATHER SERVICE GOODLAND KS
800 AM CDT FRI APR 28 2017

NOTE:  "FAIR" INDICATES FEW OR NO CLOUDS BELOW 12,000 FEET WITH NO
SIGNIFICANT WEATHER AND/OR OBSTRUCTIONS TO VISIBILITY.

KSZ001>006-013>018-027>032-041>047-281400-
NORTHWEST KANSAS

CITY           SKY/WX    TMP DP  RH WIND       PRES   REMARKS
GOODLAND       CLOUDY    39  38  96 W12       29.65R WCI  32
HAYS           PTSUNNY   48  47  96 W7        29.62R
HILL CITY      MOSUNNY   47  46  97 SW6       29.61R FOG
RUSSELL        CLOUDY    49  47  93 S3        29.60R
$$

KSZ061>065-074>080-084>089-281400-
SOUTHWEST KANSAS

CITY           SKY/WX    TMP DP  RH WIND       PRES   REMARKS
DODGE CITY     SUNNY     44  40  85 NW15      29.63R
ELKHART          N/A     41  35  79 W9          N/A
GARDEN CITY    SUNNY     40  37  89 W13       29.64R WCI  32
GREAT BEND     MOSUNNY   50  48  93 SW7       29.62R
LIBERAL        SUNNY     43  40  89 NW14      29.66R
$$

KSZ066>073-081>083-090>101-281400-
SOUTHEAST KANSAS

CITY           SKY/WX    TMP DP  RH WIND       PRES   REMARKS
CHANUTE        LGT RAIN  58  53  84 SE17G24   29.62R
COFFEYVILLE    CLOUDY    58  55  90 SE7       29.64R
HUTCHINSON     CLOUDY    54  51  90 SE5       29.59R
MEDICINE LODGE   N/A     54  50  86 SE3       29.60R
NEWTON         CLOUDY    52  50  93 CALM      29.62R
PARSONS        LGT RAIN  57  54  89 VRB6      29.65R
WICHITA INTL   CLOUDY    54  52  93 CALM      29.60R
WICHITA JABRA  PTSUNNY   53  51  93 CALM      29.60R
WICHITA MCCONL CLOUDY    55  52  88 S6        29.59S
WINFIELD       CLOUDY    58  53  84 SE16G25   29.57F
$$

KSZ007>012-019>026-033>040-048>060-102>105-281400-
NORTHEAST KANSAS

CITY           SKY/WX    TMP DP  RH WIND       PRES   REMARKS
CONCORDIA      CLOUDY    47  47 100 E8        29.62R FOG
EMPORIA        CLOUDY    54  52  93 VRB5      29.61R
LAWRENCE       CLOUDY    52  52 100 E8        29.65R
MANHATTAN      LGT RAIN  51  49  92 E6        29.62R FOG
OLATHE IND     CLOUDY    52  50  93 E10       29.65R
OLATHE EXE     CLOUDY    51  51 100 E8        29.67R
SALINA         LGT RAIN  53  49  86 CALM      29.61R
TOPEKA BILLARD CLOUDY    52  52 100 E8        29.64R
TOPEKA FORBES  CLOUDY    53  51  93 E9        29.64R
$$



USA.gov is the U.S. government's official web portal to all federal, state and local government web resources and services.